Weather History for South Lake Tahoe, CA

Change the Weather History Date:

Sunday, January 6, 2013

  Actual Average Record
Temperature  
Mean Temperature 28 °F 30 °F  
Max Temperature 34 °F 43 °F 56 °F (2006)
Min Temperature 21 °F 16 °F -8 °F (1989)
Degree Days  
Heating Degree Days 37 36  
Month to date heating degree days 247 216  
Since 1 July heating degree days 3109 3399  
Cooling Degree Days 0 0  
Month to date cooling degree days 0 0  
Year to date cooling degree days 0 0  
Moisture  
Dew Point 23 °F    
Average Humidity 69    
Maximum Humidity 92    
Minimum Humidity 45    
Precipitation  
Precipitation 0.14 in - 2.50 in (1965)
Month to date precipitation 0.14  
Year to date precipitation 0.14  
Sea Level Pressure  
Sea Level Pressure 30.01 in    
Wind  
Wind Speed 3 mph (NE)    
Max Wind Speed 16 mph    
Max Gust Speed 21 mph    
Visibility 6 miles    
Events Fog , Snow    
T = Trace of Precipitation, MM = Missing Value Source: NWS Daily Summary

Daily Weather History Graph

Daily Weather History Graph

Search for Another Location

Airport:

Trip Planner

Search our weather history database for the weather conditions in past years. The results will help you decide how hot, cold, wet, or windy it might be!

Date:

Astronomy

Jan. 06, 2013 Rise Set
Actual Time 7:18 AM PST 4:53 PM PST
Civil Twilight 6:49 AM PST 5:23 PM PST
Nautical Twilight 6:16 AM PST 5:56 PM PST
Astronomical Twilight 5:43 AM PST 6:28 PM PST
Moon 1:40 AM PST (1/6) 12:23 PM PST (1/6)
Length of Visible Light 10h 33m
Length of Day
9h 34m
Waning Crescent, 32% of the Moon is Illuminated
Jan 6
Waning Crescent
Jan 11
New
Jan 18
First Quarter
Jan 26
Full
Feb 3
Last Quarter

Hourly Weather History & Observations

Time (PST) Temp. Windchill Dew Point Humidity Pressure Visibility Wind Dir Wind Speed Gust Speed Precip Events Conditions
12:53 AM 24.1 °F - 18.0 °F 77% 29.94 in 10.0 mi Calm Calm - N/A   Overcast
1:53 AM 26.1 °F 18.4 °F 19.0 °F 75% 29.93 in 10.0 mi South 6.9 mph - N/A   Overcast
2:53 AM 30.0 °F 26.5 °F 19.0 °F 64% 29.92 in 10.0 mi SSW 3.5 mph - N/A   Overcast
4:10 AM 30.2 °F 24.3 °F 23.0 °F 75% 29.97 in 2.5 mi South 5.8 mph - 0.00 in Snow Light Snow
4:27 AM 28.4 °F 24.6 °F 24.8 °F 86% 29.97 in 2.0 mi South 3.5 mph - 0.00 in Snow Light Snow
4:40 AM 28.4 °F 24.6 °F 24.8 °F 86% 29.97 in 1.8 mi SSE 3.5 mph - 0.00 in Snow Light Snow
4:53 AM 28.9 °F 25.2 °F 25.0 °F 85% 29.95 in 1.8 mi South 3.5 mph - 0.00 in Snow Light Snow
5:29 AM 30.2 °F - 26.6 °F 86% 29.98 in 0.8 mi Calm Calm - 0.01 in Snow Light Snow
5:49 AM 28.4 °F - 26.6 °F 93% 29.98 in 1.0 mi Calm Calm - 0.03 in Snow Light Snow
5:53 AM 28.9 °F - 26.1 °F 89% 29.96 in 1.2 mi Calm Calm - 0.03 in Snow Light Snow
6:53 AM 30.0 °F - 26.1 °F 85% 29.96 in 2.5 mi Calm Calm - 0.01 in Snow Light Snow
7:00 AM 30.2 °F - 26.6 °F 86% 29.98 in 3.0 mi Calm Calm - 0.00 in Snow Light Snow
7:18 AM 28.4 °F - 26.6 °F 93% 29.98 in 3.0 mi Calm Calm - 0.00 in Snow Light Snow
7:25 AM 28.4 °F - 26.6 °F 93% 29.99 in 3.0 mi Calm Calm - 0.00 in Snow Light Snow
7:53 AM 28.0 °F - 25.0 °F 88% 30.00 in 3.0 mi Calm Calm - 0.00 in Snow Light Snow
8:07 AM 28.4 °F - 24.8 °F 86% 29.99 in 6.0 mi Calm Calm - 0.00 in   Overcast
8:53 AM 28.9 °F - 26.1 °F 89% 30.02 in 4.0 mi Calm Calm - 0.00 in Snow Light Snow
9:12 AM 30.2 °F 26.7 °F 26.6 °F 86% 30.01 in 1.8 mi NNE 3.5 mph - 0.00 in Snow Light Snow
9:19 AM 30.2 °F 23.4 °F 26.6 °F 86% 30.01 in 0.5 mi NNE 6.9 mph - 0.01 in Fog , Snow Snow
9:23 AM 30.2 °F 24.3 °F 24.8 °F 80% 30.01 in 0.2 mi NNE 5.8 mph - 0.01 in Snow Heavy Snow
9:53 AM 30.0 °F 26.5 °F 25.0 °F 82% 30.04 in 0.2 mi North 3.5 mph - 0.04 in Snow Heavy Snow
10:53 AM 30.0 °F 24.1 °F 25.0 °F 82% 30.04 in 0.2 mi NNE 5.8 mph - 0.05 in Snow Heavy Snow
11:15 AM 30.2 °F 25.4 °F 24.8 °F 80% 30.02 in 2.0 mi NNE 4.6 mph - 0.01 in Snow Light Snow
11:53 AM 32.0 °F 26.4 °F 24.1 °F 73% 30.04 in 10.0 mi NNE 5.8 mph - 0.01 in   Overcast
12:11 PM 32.0 °F 25.6 °F 23.0 °F 69% 30.00 in 10.0 mi NNE 6.9 mph - N/A   Mostly Cloudy
12:53 PM 33.1 °F 26.9 °F 21.0 °F 61% 30.02 in 10.0 mi NNE 6.9 mph - N/A   Mostly Cloudy
1:53 PM 33.1 °F - 21.9 °F 64% 30.01 in 10.0 mi Calm Calm - 0.00 in   Overcast
2:53 PM 32.0 °F - 14.0 °F 48% 30.02 in 10.0 mi Calm Calm - N/A   Overcast
3:53 PM 32.0 °F - 16.0 °F 52% 30.03 in 10.0 mi Calm Calm - N/A   Overcast
4:53 PM 30.0 °F - 19.9 °F 66% 30.04 in 10.0 mi Calm Calm - N/A   Overcast
5:53 PM 28.9 °F - 21.0 °F 72% 30.06 in 10.0 mi Calm Calm - N/A   Overcast
7:06 PM 30.2 °F 23.4 °F 21.2 °F 69% 30.06 in 10.0 mi NNE 6.9 mph - N/A   Overcast
7:29 PM 30.2 °F 26.7 °F 21.2 °F 69% 30.06 in 10.0 mi Variable 3.5 mph - N/A   Overcast
7:53 PM 30.9 °F 24.3 °F 21.9 °F 69% 30.08 in 10.0 mi North 6.9 mph 16.1 mph N/A   Overcast
8:53 PM 30.9 °F 22.2 °F 21.9 °F 69% 30.11 in 10.0 mi North 10.4 mph 18.4 mph N/A   Mostly Cloudy
9:53 PM 30.0 °F - 21.9 °F 72% 30.13 in 10.0 mi Calm Calm - N/A   Overcast
10:53 PM 28.9 °F - 21.0 °F 72% 30.12 in 10.0 mi Calm Calm - N/A   Clear
11:53 PM 26.1 °F - 19.9 °F 78% 30.14 in 10.0 mi Calm Calm - N/A   Clear